Location: Unspecified
(43.1763°N, 179.4719°W)
Time: 15:06:58
(UTC-04:00)

Cosmos 1674 - Visible Passes

Search period start: 16 October 2021 00:00
Search period end: 26 October 2021 00:00
Orbit: 492 x 515 km, 82.5° (Epoch: 16 October)

Date Brightness Start Highest point End Pass type
(mag) Time Alt. Az. Time Alt. Az. Time Alt. Az.
16 Oct 2.5 13:26:17 10° SSW 13:29:57 68° W 13:33:40 10° N visible
17 Oct 2.6 13:07:32 10° S 13:11:13 86° E 13:14:57 10° N visible
18 Oct 3.1 12:48:51 10° S 12:52:29 61° E 12:56:10 10° NNE visible
19 Oct 3.8 12:30:16 10° SSE 12:33:46 44° E 12:37:20 10° NNE visible
20 Oct 4.4 12:11:46 10° SSE 12:15:05 32° E 12:18:25 10° NNE visible
21 Oct 5.0 11:53:24 10° SE 11:56:24 24° E 11:59:26 10° NE visible
21 Oct 3.9 13:28:55 10° SW 13:31:48 21° WNW 13:34:44 10° NNW visible
22 Oct 5.4 11:35:50 13° ESE 11:37:44 18° E 11:40:19 10° NE visible
22 Oct 3.5 13:10:45 16° SW 13:12:58 28° WNW 13:16:15 10° NNW visible
23 Oct 5.7 11:19:10 14° E 11:19:10 14° E 11:20:58 10° NE visible
23 Oct 3.0 12:54:02 37° W 12:54:10 38° WNW 12:57:40 10° N visible
24 Oct 3.7 12:36:47 32° NNW 12:36:47 32° NNW 12:39:03 10° N visible
25 Oct 4.7 12:19:13 19° N 12:19:13 19° N 12:20:20 10° N visible
